THORAD AGENA D DEB, 6139

Orbit data source: Space-Track

THORAD AGENA D DEB, 6139 is space debris in SSO originally from a launch on Wed, 08 Apr 1970 UTC launched from the Air Force Western Test Range (AFWTR). Debris objects in space refer to the collection of defunct objects orbiting the Earth. Examples of debris include non-operational satellites, rocket bodies, and fragments generated from explosions, collisions, or faulty payload assembly.

Loading next visibility...
Identifier
6139, 1970-025MV
Orbit
SSO
Country
Flag of USUS
Related business
Manufacturer
Unknown
Mission
Spacecraft
Bus & Motor
Unknown
Mass
Unknown
Launch date (UTC)
1970-04-08 (56 years ago)
Launch vehicle
Unknown
Launch site
Air Force Western Test Range (AFWTR)
Object type
Payload
Rocket body
Debris
Shape & HBR
Unknown shape, 0.1 m
Radar Cross Section
Small (<0.1 m²)

Expand to show TLE details & history
Last TLE update: 1 day ago

TLE from 1 day ago
0 THORAD AGENA D DEB
1 06139U 70025MV  25287.06983532  .00002738  00000-0  18102-2 0  9997
2 06139  98.9378 162.1707 0071916 301.1366  58.2759 14.01165207794534
Epoch: 2025-10-14T01:40Z
TLE epoch observation values (Epoch: 2025-10-14T01:40:33.771Z)
Latitude
-0.00005°
Longitude
114.16645°
Altitude
865.429 km
Speed
7.434 km/s
True Right ascension
10h 48m 40s
True Declination
0° 00' 00"
Sunlit
Object was in daylight at epoch
Visualization orbit readout
Latitude
Unknown
Longitude
Unknown
Altitude
Unknown
Speed
Unknown
Apparent Right ascension
Unknown
Apparent Declination
Unknown
Sunlit
N/A
Visualization observer readout
Local Sidereal Time
22:01:32
Azimuth
Unknown
Elevation
Unknown
Doppler factor
Unknown
Orbital elements
Apogee altitude
939.205 km
Perigee altitude
834.71 km
Semi-major axis
7,265.095 km
Eccentricity
0.00719
Inclination
98.9378°
RAAN
162.1707°
Arg. of periapsis
301.1366°
True anomaly
58.98018°
Mean anomaly
58.2759°
Eccentric anomaly
58.62771°
Mean motion
3.50495 °/min
Orbital period
102.71 mins
BSTAR
0.0018102

Documentation

Showing up to 5 results
|